User: anonymous   Login
Location: Haulchin
(50.3172°N, 3.4360°E)
Time: 05:25:54
(UTC+00:00)
Language:

Cosmos 2292 - Orbit

View from above orbital plane
View from above orbital plane
View from above satellite
View from above satellite

Ground track
Ground track

The orbit data is extracted from the following two-line orbital elements,

1 23278U 94061A   24205.84961839  .00003351  00000-0  28786-3 0  9999
2 23278  82.9730  65.2107 0845097 294.1028  57.3989 13.64346255463196
Epoch (UTC): 23 July 2024 20:23:27
Eccentricity: 0.0845097
inclination: 82.9730°
perigee height: 395 km
apogee height: 1645 km
right ascension of ascending node: 65.2107°
argument of perigee: 294.1028°
revolutions per day: 13.64346255
mean anomaly at epoch: 57.3989°
orbit number at epoch: 46319

The dashed part of the orbit path shows where the satellite is in the earth's shadow,  

DLR